{"data":{"norad_id":67284,"epoch":"2026-09-20T22:31:22.490400Z","epoch_age_seconds":65179,"freshness":"FRESH","line1":"1 67284U 25313AN  26263.93845475  .00003092  00000+0  13167-3 0  9999","line2":"2 67284  97.3841 337.1346 0011093  31.1552 329.0341 15.23674344 40532","mean_motion":15.23674344,"eccentricity":0.0011093,"inclination_deg":97.3841,"raan_deg":337.1346,"arg_perigee_deg":31.1552,"mean_anomaly_deg":329.0341,"bstar":0.00013167,"rev_number":4053,"period_min":94.508384004135,"perigee_km":487.14489491307,"apogee_km":502.39312418585,"semimajor_km":6872.9060095495,"source":"CELESTRAK","updated_at":"2026-09-21T09:00:16.547957Z"}}